Date String (YYYY-MM-DD hh:mm:ss) UTC,Instrument flags,Ambient pressure (hPa),Sample flow (lpm),Bypass flow (lpm),Sample temperature (°C),Ambient temperature (°C),ASC tube jacket temperature (°C),LED temperature (°C),Box temperature (°C),Sample RH (%),Span deviation,Mass concentration (μg/m³),Mass concentration (μg/m³),Mass concentration (μg/m³)
DateTimeUTC,F1_M11,P_M11,Q1_M11,Q2_M11,T1_M11,T2_M11,T3_M11,T4_M11,T5_M11,U1_M11,ZSPAN_M11,X0_M11,X2_M11,X1_M11
2022-12-02 06:00:00,,0812.2,5.00,0.00,24.3,22.8,00.0,33.2,26.1,10.4,0000.0,0001.44,0000.61,0000.35
2022-12-02 06:01:00,,0812.3,4.99,0.00,24.3,22.8,00.0,33.2,26.2,10.6,0000.0,0001.55,0000.63,0000.35
2022-12-02 06:02:00,,0812.2,4.98,0.00,24.3,22.9,00.0,33.2,26.2,10.7,0000.0,0001.72,0000.64,0000.35
2022-12-02 06:03:00,,0812.2,5.01,0.00,24.3,22.9,00.0,33.2,26.2,10.6,0000.0,0001.94,0000.63,0000.35
2022-12-02 06:04:00,,0812.2,5.01,0.00,24.3,22.9,00.0,33.2,26.2,10.7,0000.0,0001.93,0000.61,0000.34
2022-12-02 06:05:00,,0812.2,5.01,0.00,24.3,22.9,00.0,33.2,26.2,10.6,0000.0,0002.02,0000.64,0000.34
2022-12-02 06:06:00,,0812.2,4.99,0.00,24.3,22.9,00.0,33.2,26.2,10.5,0000.0,0002.04,0000.66,0000.34
2022-12-02 06:07:00,,0812.1,4.99,0.00,24.3,22.9,00.0,33.2,26.1,10.4,0000.0,0002.14,0000.68,0000.34
2022-12-02 06:08:00,,0812.1,5.01,0.00,24.3,22.9,00.0,33.2,26.1,10.6,0000.0,0002.14,0000.69,0000.35
2022-12-02 06:09:00,,0812.1,5.01,0.00,24.3,22.8,00.0,33.2,26.1,10.7,0000.0,0002.05,0000.67,0000.35
2022-12-02 06:10:00,,0812.1,4.98,0.00,24.3,22.8,00.0,33.2,26.1,10.6,0000.0,0002.03,0000.64,0000.35
2022-12-02 06:11:00,,0812.0,5.01,0.00,24.3,22.9,00.0,33.2,26.1,10.6,0000.0,0002.15,0000.66,0000.34
2022-12-02 06:12:00,,0812.2,5.00,0.00,24.3,22.9,00.0,33.2,26.1,10.6,0000.0,0002.27,0000.68,0000.34
2022-12-02 06:13:00,,0812.0,5.00,0.00,24.3,22.8,00.0,33.2,26.1,10.5,0000.0,0002.19,0000.73,0000.35
2022-12-02 06:14:00,,0811.8,4.99,0.00,24.3,22.8,00.0,33.2,26.1,10.7,0000.0,0001.84,0000.73,0000.35
2022-12-02 06:15:00,,0811.9,5.01,0.00,24.2,22.8,00.0,33.2,26.1,10.5,0000.0,0002.00,0000.76,0000.35
2022-12-02 06:16:00,,0811.7,5.01,0.00,24.2,22.7,00.0,33.2,26.1,10.3,0000.0,0002.24,0000.79,0000.36
2022-12-02 06:17:00,,0811.7,5.00,0.00,24.2,22.7,00.0,33.1,26.0,10.3,0000.0,0002.24,0000.79,0000.35
2022-12-02 06:18:00,,0811.7,5.00,0.00,24.2,22.7,00.0,33.1,26.0,10.6,0000.0,0002.76,0000.81,0000.35
2022-12-02 06:19:00,,0811.6,4.99,0.00,24.2,22.6,00.0,33.1,26.0,10.4,0000.0,0004.75,0000.83,0000.35
2022-12-02 06:20:00,,0811.7,5.00,0.00,24.2,22.6,00.0,33.1,26.0,10.4,0000.0,0006.06,0000.89,0000.35
2022-12-02 06:21:00,,0811.5,5.01,0.00,24.2,22.6,00.0,33.1,26.0,10.5,0000.0,0006.28,0000.97,0000.36
2022-12-02 06:22:00,,0811.3,5.00,0.00,24.1,22.6,00.0,33.1,25.9,10.2,0000.0,0007.22,0001.03,0000.37
2022-12-02 06:23:00,,0811.3,5.00,0.00,24.1,22.5,00.0,33.1,25.8,10.2,0000.0,0007.70,0001.06,0000.37
2022-12-02 06:24:00,,0811.3,5.00,0.00,24.1,22.5,00.0,33.1,25.9,10.2,0000.0,0007.62,0001.00,0000.37
2022-12-02 06:25:00,,0811.3,4.99,0.00,24.1,22.5,00.0,33.1,25.9,10.1,0000.0,0007.65,0001.01,0000.36
2022-12-02 06:26:00,,0811.3,4.99,0.00,24.0,22.5,00.0,33.1,25.8,10.2,0000.0,0007.56,0000.97,0000.37
2022-12-02 06:27:00,,0811.3,5.00,0.00,24.0,22.4,00.0,33.1,25.8,10.1,0000.0,0007.50,0000.97,0000.37
2022-12-02 06:28:00,,0811.0,5.00,0.00,24.0,22.3,00.0,33.0,25.7,10.2,0000.0,0007.70,0001.00,0000.37
2022-12-02 06:29:00,,0810.9,5.00,0.00,24.0,22.3,00.0,33.0,25.7,10.2,0000.0,0008.14,0001.02,0000.38
2022-12-02 06:30:00,,0811.1,5.01,0.00,24.0,22.2,00.0,33.0,25.6,10.3,0000.0,0007.35,0001.03,0000.39
2022-12-02 06:31:00,,0810.9,4.98,0.00,24.0,22.2,00.0,33.0,25.6,10.4,0000.0,0013.20,0001.14,0000.40
2022-12-02 06:32:00,,0811.0,5.02,0.00,23.9,22.1,00.0,32.9,25.6,10.1,0000.0,0016.97,0001.20,0000.40
2022-12-02 06:33:00,,0811.1,4.98,0.00,23.9,22.1,00.0,32.9,25.5,10.5,0000.0,0016.81,0001.17,0000.41
2022-12-02 06:34:00,,0811.0,4.99,0.00,23.9,22.1,00.0,32.9,25.5,10.5,0000.0,0016.65,0001.13,0000.41
2022-12-02 06:35:00,,0810.9,5.00,0.00,23.9,22.1,00.0,32.9,25.5,10.1,0000.0,0016.66,0001.13,0000.42
2022-12-02 06:36:00,,0810.9,5.01,0.00,23.8,22.0,00.0,32.9,25.5,10.2,0000.0,0016.71,0001.15,0000.43
2022-12-02 06:37:00,,0810.8,5.01,0.00,23.8,22.0,00.0,32.9,25.5,10.4,0000.0,0017.54,0001.20,0000.43
2022-12-02 06:38:00,,0810.7,5.00,0.00,23.8,22.0,00.0,32.8,25.5,10.3,0000.0,0017.73,0001.20,0000.44
2022-12-02 06:39:00,,0810.8,5.00,0.00,23.8,21.9,00.0,32.8,25.5,10.3,0000.0,0018.53,0001.19,0000.44
2022-12-02 06:40:00,,0811.0,5.00,0.00,23.7,21.9,00.0,32.8,25.4,10.5,0000.0,0017.84,0001.18,0000.45
2022-12-02 06:41:00,,0811.1,5.00,0.00,23.7,21.9,00.0,32.8,25.3,10.6,0000.0,0017.50,0001.15,0000.45
2022-12-02 06:42:00,,0810.8,5.00,0.00,23.7,21.9,00.0,32.8,25.3,10.6,0000.0,0011.95,0000.99,0000.44
2022-12-02 06:43:00,,0810.8,5.00,0.00,23.7,21.9,00.0,32.7,25.3,10.4,0000.0,0008.77,0000.90,0000.42
2022-12-02 06:44:00,,0810.8,4.99,0.00,23.6,21.8,00.0,32.7,25.3,10.5,0000.0,0008.52,0000.89,0000.42
2022-12-02 06:45:00,,0810.6,5.02,0.00,23.6,21.8,00.0,32.7,25.3,10.4,0000.0,0009.17,0000.94,0000.42
2022-12-02 06:46:00,,0810.8,5.01,0.00,23.6,21.7,00.0,32.7,25.3,10.4,0000.0,0009.41,0001.00,0000.42
2022-12-02 06:47:00,,0810.6,5.00,0.00,23.6,21.7,00.0,32.7,25.2,10.6,0000.0,0009.60,0001.01,0000.41
2022-12-02 06:48:00,,0811.0,5.00,0.00,23.6,21.7,00.0,32.7,25.2,10.2,0000.0,0008.86,0001.01,0000.41
2022-12-02 06:49:00,,0810.8,4.98,0.00,23.5,21.7,00.0,32.6,25.2,10.5,0000.0,0008.66,0000.98,0000.42
2022-12-02 06:50:00,,0810.6,5.02,0.00,23.5,21.7,00.0,32.6,25.2,10.2,0000.0,0011.26,0001.02,0000.41
2022-12-02 06:51:00,,0810.5,5.00,0.00,23.5,21.6,00.0,32.6,25.2,10.5,0000.0,0012.02,0001.04,0000.41
2022-12-02 06:52:00,,0810.5,5.00,0.00,23.5,21.6,00.0,32.6,25.1,10.4,0000.0,0012.16,0001.04,0000.40
2022-12-02 06:53:00,,0810.6,5.00,0.00,23.5,21.6,00.0,32.5,25.1,10.6,0000.0,0012.21,0001.06,0000.41
2022-12-02 06:54:00,,0810.5,5.01,0.00,23.4,21.6,00.0,32.5,25.1,10.5,0000.0,0012.58,0001.08,0000.42
2022-12-02 06:55:00,,0810.4,5.01,0.00,23.4,21.5,00.0,32.5,25.1,10.4,0000.0,0016.96,0001.19,0000.42
2022-12-02 06:56:00,,0810.7,5.00,0.00,23.4,21.5,00.0,32.5,25.0,10.6,0000.0,0018.46,0001.25,0000.43
2022-12-02 06:57:00,,0810.6,5.00,0.00,23.4,21.5,00.0,32.5,25.0,10.7,0000.0,0018.31,0001.24,0000.43
2022-12-02 06:58:00,,0810.4,4.99,0.00,23.3,21.5,00.0,32.4,25.0,10.6,0000.0,0018.28,0001.20,0000.44
2022-12-02 06:59:00,,0810.3,5.02,0.00,23.3,21.5,00.0,32.4,25.0,10.5,0000.0,0018.18,0001.17,0000.44
